SCP
0 0 0 0 0 0 0 0 0 0 0 0 0 0 0 0 0 0 0 0 0 0 0 0 0 0 0 1 1 1 2 2 2 2 2 1 1 1 1 1 0 0 0 1
0 0 0 0 0 0 0 0 0 0 0 0 0 0 0 0 0 0 0 0 0 0 0 0 0 0 0 0 1 1 2 2 2 2 2 1 1 1 1 1 0 0 0 0
0 0 0 0 0 0 0 0 0 0 0 0 0 0 0 0 0 0 0 0 0 0 0 0 0 0 0 0 1 1 2 2 2 2 2 1 1 1 1 1 1 0 0 0
0 0 0 0 0 0 0 0 0 0 0 0 0 0 0 0 0 0 0 0 0 0 0 0 0 0 0 0 1 1 2 2 2 2 2 1 1 1 1 1 1 0 0 0
0 0 0 0 0 0 0 0 0 0 0 0 0 0 0 0 0 0 0 0 0 0 0 0 0 0 0 0 0 1 2 2 2 2 2 1 1 1 1 1 1 1 0 0
0 0 0 0 0 0 0 0 0 0 0 0 0 0 0 0 0 0 0 0 0 0 0 0 0 0 0 0 0 1 2 2 2 2 2 1 1 1 1 1 1 1 0 0
0 0 0 0 0 0 0 0 0 0 0 0 0 0 0 0 0 0 0 0 0 0 0 0 0 0 0 0 0 1 1 2 2 2 2 1 1 1 1 1 1 1 0 0
0 0 0 0 0 0 0 0 0 0 0 0 0 0 0 0 0 0 0 0 0 0 0 0 0 0 0 0 0 0 1 2 2 2 2 1 1 1 1 1 1 1 0 0
0 0 0 0 0 0 0 0 0 0 0 0 0 0 0 0 0 0 0 0 0 0 0 0 0 0 0 0 0 0 1 1 2 2 2 1 1 1 1 1 1 0 0 0
0 0 0 0 0 0 0 0 0 0 0 0 0 0 0 0 0 0 0 0 0 0 0 0 0 0 0 0 0 0 0 1 1 1 1 1 1 1 1 1 0 0 0 0
0 0 0 0 0 0 0 0 0 0 0 0 0 0 0 0 0 0 0 0 0 0 0 0 0 0 0 0 0 0 0 0 1 1 1 1 1 1 1 1 1 0 0 0
0 0 0 0 0 0 0 0 0 0 0 0 0 0 0 0 0 0 0 0 0 0 0 0 0 0 0 0 0 0 0 0 1 1 1 1 1 1 1 1 1 0 0 0
0 0 0 0 0 0 0 0 0 0 0 0 0 0 0 0 0 0 0 0 0 0 0 0 0 0 0 0 0 0 0 0 0 1 1 1 1 1 1 1 0 0 0 0
0 0 0 0 0 0 0 0 0 0 0 0 0 0 0 0 0 0 0 0 0 0 0 0 0 0 0 0 0 0 0 0 0 1 1 1 1 1 0 0 0 0 0 0
0 0 0 0 0 0 0 0 0 0 0 0 0 0 0 0 0 0 0 0 0 0 0 0 0 0 0 0 0 0 0 0 0 0 0 0 0 0 0 0 0 0 0 0
0 0 0 0 0 0 0 0 0 0 0 0 0 0 0 0 0 0 0 0 0 0 0 0 0 0 0 0 0 0 0 0 0 0 0 0 0 0 0 0 0 0 0 0
0 0 0 0 0 0 0 0 0 0 0 0 0 0 0 0 0 0 0 0 0 0 0 0 0 0 0 0 0 0 0 0 0 0 0 0 0 0 0 0 0 0 0 0
0 0 0 0 0 0 0 0 0 0 0 0 0 0 0 0 0 0 0 0 0 0 0 0 0 0 0 0 0 0 0 0 0 0 0 0 0 0 0 0 0 0 0 0
0 0 0 0 0 0 0 0 0 0 0 0 0 0 0 0 0 0 0 0 0 0 0 0 0 0 0 0 0 0 0 0 0 0 0 0 0 0 0 0 0 0 0 0
0 0 0 0 0 0 0 0 0 0 0 0 0 0 0 0 0 0 0 0 0 0 0 0 0 0 0 0 0 0 0 0 0 0 0 0 0 0 0 0 0 0 0 0
0 0 0 0 0 0 0 0 0 0 0 0 0 0 0 0 0 0 0 0 0 0 0 0 0 0 0 0 0 0 0 0 0 0 0 0 0 0 0 0 0 0 0 0
0 0 0 0 0 0 0 0 0 0 0 0 0 0 0 0 0 0 0 0 0 0 0 0 0 0 0 0 0 0 0 0 0 0 0 0 0 0 0 0 0 0 0 0
0 0 0 0 0 0 0 0 0 0 0 0 0 0 0 0 0 0 0 0 0 0 0 0 0 0 0 0 0 0 0 0 0 0 0 0 0 0 0 0 0 0 0 0
0 0 0 0 0 0 0 0 0 0 0 0 0 0 0 0 0 0 0 0 0 0 0 0 0 0 0 0 0 0 0 0 0 0 0 0 0 0 0 0 0 0 0 0
0 0 0 0 0 0 0 0 0 0 0 0 0 0 0 0 0 0 0 0 0 0 0 0 0 0 0 0 0 0 0 0 0 0 0 0 0 0 0 0 0 0 0 0
0 0 0 0 0 0 0 0 0 0 0 0 0 0 0 0 0 0 0 0 0 0 0 0 0 0 0 0 0 0 0 0 0 0 0 0 0 0 0 0 0 0 0 0
Wind_Speed
3 4 2 4 5 3 3 3 4 4 1 1 4 7 7 3 1 2 2 1 2 3 2 3 2 2 2 3 2 1 1 1 1 1 1 1 0 0 0 0 0 1 1 1
4 1 4 2 1 2 2 3 4 3 1 1 3 7 5 3 2 2 2 2 2 2 4 4 4 3 2 1 1 2 1 1 1 1 1 1 1 1 1 0 0 1 1 0
4 2 0 2 1 1 3 5 5 4 3 1 3 6 3 1 0 1 1 1 2 2 2 3 4 3 3 2 2 1 2 1 1 0 0 1 1 1 0 1 1 1 1 0
1 2 1 1 1 2 5 3 3 3 1 3 1 6 5 2 2 2 3 3 3 3 3 3 3 4 4 3 3 2 2 1 0 1 1 1 1 1 2 1 1 2 1 1
1 1 1 1 2 2 3 1 1 2 3 2 1 3 7 1 2 3 3 3 3 3 3 3 3 3 4 4 4 2 2 1 1 0 1 1 1 1 1 1 1 1 1 1
1 0 1 1 0 1 1 3 3 3 2 4 5 5 7 3 3 2 3 3 4 3 3 3 4 4 4 4 4 4 3 2 1 1 1 1 1 1 1 1 1 1 1 1
4 2 1 1 2 2 3 4 3 5 2 6 2 4 8 3 2 2 2 3 4 4 3 4 4 5 5 5 5 4 5 4 2 2 2 2 2 2 3 3 2 2 2 2
2 5 2 1 1 2 1 4 5 4 5 5 1 6 5 1 1 1 1 2 4 5 4 4 4 4 4 5 5 5 5 5 3 2 3 2 2 2 2 3 3 3 3 3
1 4 2 2 1 2 2 2 2 3 1 3 6 5 6 1 2 3 3 4 5 5 5 5 5 5 5 5 5 5 5 5 4 3 3 3 2 2 3 3 2 2 3 3
2 4 4 3 1 2 1 4 3 3 2 5 6 5 4 3 3 2 3 4 4 5 5 5 5 5 5 5 5 5 4 5 4 3 3 3 3 3 3 2 3 3 4 4
1 2 4 2 1 2 1 2 2 2 3 4 5 7 3 4 2 2 3 3 4 5 5 5 5 5 5 5 5 5 5 5 5 4 4 4 4 3 3 3 3 4 4 4
1 2 4 5 2 1 2 2 4 3 4 4 3 7 2 1 1 1 2 4 4 5 5 5 5 5 6 6 6 6 5 5 6 5 5 4 4 4 3 4 4 4 4 4
2 2 3 5 2 2 1 0 1 2 2 3 4 8 1 2 2 2 2 4 5 5 6 5 5 6 6 6 6 6 6 6 6 5 5 5 4 4 4 4 4 4 4 4
2 2 4 6 5 1 2 2 1 3 3 4 7 8 6 4 5 5 4 4 5 5 5 6 6 6 6 6 6 7 7 6 6 5 5 5 5 5 5 4 4 4 4 4
2 2 3 4 3 1 3 4 4 6 6 7 7 6 8 5 4 4 3 4 6 6 7 7 7 7 7 7 7 7 7 7 6 6 6 6 6 5 4 4 4 4 4 4
2 1 1 3 1 1 4 6 5 6 4 6 6 9 5 4 2 3 4 5 6 7 7 8 8 8 8 8 8 9 8 8 6 6 6 6 6 5 4 4 4 4 4 4
1 2 1 4 3 3 7 5 5 4 4 5 7 7 3 4 4 4 5 5 6 7 7 8 8 8 8 8 8 9 9 8 6 6 6 6 6 5 5 5 4 4 4 4
4 3 2 2 4 5 6 1 2 3 3 4 4 4 4 5 5 4 4 4 5 6 7 8 8 8 8 8 8 8 8 7 6 6 6 6 5 5 5 4 4 4 4 4
2 4 2 1 2 8 5 0 1 2 5 3 4 5 5 5 4 4 3 2 4 5 6 7 7 8 8 9 8 8 8 7 6 7 7 6 6 5 5 5 5 4 4 4
3 2 3 2 2 7 5 1 1 1 5 1 2 4 4 4 4 4 3 5 6 6 6 7 7 7 8 8 8 7 7 7 7 7 7 6 6 5 5 5 5 4 4 4
1 1 2 4 5 8 3 2 1 2 5 3 2 3 2 2 4 5 6 6 6 6 7 7 7 7 7 8 7 7 7 7 7 7 7 6 5 5 5 4 4 4 4 4
4 3 4 3 4 8 1 2 3 4 3 3 3 3 3 5 5 5 6 6 6 7 7 7 7 7 7 7 6 7 8 8 7 7 7 6 6 5 4 4 4 3 3 3
4 5 4 6 6 2 2 2 2 2 3 3 3 4 3 4 5 5 5 5 6 6 7 6 6 8 8 7 6 7 8 8 7 7 7 6 6 5 4 3 3 3 2 2
2 1 2 3 5 4 3 3 3 3 4 4 4 4 3 4 5 5 5 5 6 6 6 6 6 7 8 8 8 7 8 7 7 7 7 6 5 5 4 3 3 3 2 2
3 2 2 4 5 5 3 2 3 4 4 4 4 3 3 3 4 4 4 5 5 6 6 6 6 7 8 8 8 8 8 7 7 7 6 6 5 5 4 3 3 3 3 3
2 4 4 5 4 3 5 3 3 3 4 4 4 4 3 3 3 3 4 4 5 6 6 6 6 7 8 8 8 8 8 7 6 6 6 5 4 4 4 4 4 5 5 7
Wind_Direction
40 74 189 217 206 201 179 199 244 256 293 220 239 259 274 282 294 295 303 305 302 297 330 3 15 31 36 31 32 52 109 96 108 117 130 142 182 239 193 164 23 38 39 83
56 242 242 225 198 199 209 238 260 287 336 267 273 269 265 257 227 232 266 283 294 336 0 3 10 14 21 20 4 12 342 149 154 190 191 196 200 227 236 358 10 23 24 1
167 236 238 128 115 202 230 219 238 258 329 341 319 289 251 257 104 23 354 338 350 0 347 347 355 356 357 349 333 330 329 284 196 67 74 63 64 45 39 343 308 319 325 338
211 297 103 129 187 176 249 233 232 243 270 280 155 285 272 261 315 340 343 350 343 350 357 349 354 351 347 337 332 328 324 322 282 128 137 161 180 219 235 241 264 299 306 304
273 348 74 194 239 183 232 339 217 215 196 274 235 237 278 338 293 297 314 327 332 339 347 345 348 341 342 347 350 335 341 337 338 192 168 201 233 233 255 266 275 286 295 292
255 252 157 209 330 155 141 54 55 58 95 261 220 199 273 242 247 297 319 330 339 344 349 348 353 360 355 358 359 356 345 334 338 319 222 213 242 255 254 269 263 275 287 279
335 331 358 54 42 32 62 75 17 351 338 253 191 208 251 259 270 255 289 328 347 353 352 349 353 356 355 354 353 351 350 333 324 309 279 247 243 238 240 240 235 247 264 266
336 303 321 14 144 180 179 143 162 222 245 282 291 238 255 284 339 346 338 344 357 355 349 343 342 344 343 343 345 345 340 331 320 300 291 273 257 248 257 260 256 241 248 254
227 274 329 356 342 141 141 177 168 147 213 276 267 280 297 351 354 1 360 5 355 347 342 340 341 345 344 341 338 334 330 329 320 309 300 291 275 274 271 268 265 267 265 262
175 271 295 318 30 26 127 148 112 144 210 260 280 270 258 276 285 314 331 336 335 338 338 337 338 337 337 336 333 332 329 324 317 310 300 300 289 277 274 272 268 268 270 268
133 226 304 338 213 222 105 110 143 174 190 202 266 270 234 229 240 266 297 320 325 328 329 329 330 333 333 333 334 334 329 326 325 316 301 290 286 279 272 268 267 268 270 268
134 135 273 264 263 90 142 165 155 192 239 207 222 269 308 216 233 272 307 324 329 331 331 332 333 337 340 338 334 330 325 321 317 315 305 292 287 285 277 275 274 271 268 265
151 128 323 328 342 22 26 243 196 169 169 194 210 260 355 30 12 349 330 326 328 332 335 340 342 340 336 332 329 325 321 316 313 313 310 299 289 281 278 278 279 274 269 269
118 162 195 232 254 212 247 248 163 152 194 224 228 254 292 311 319 324 327 324 324 326 331 336 335 332 330 328 326 323 320 315 313 312 308 303 291 280 276 277 277 274 270 268
92 216 233 254 262 230 239 246 201 198 208 217 247 248 273 284 291 299 313 323 327 330 334 334 331 328 327 327 326 324 320 317 314 311 306 300 298 290 286 283 280 277 273 270
82 206 266 276 236 239 274 262 233 228 235 245 271 277 285 301 320 312 317 320 320 323 327 328 330 330 327 326 323 322 318 315 313 307 302 303 305 298 291 289 286 283 278 276
149 154 215 271 303 334 283 247 195 207 218 205 234 258 313 320 310 303 307 311 310 316 321 325 326 323 321 318 316 313 312 312 311 305 304 303 301 298 294 293 291 285 279 277
158 158 181 296 8 259 249 74 160 203 243 232 257 287 300 294 297 294 291 293 306 316 320 320 319 318 317 314 313 311 312 312 310 308 307 302 297 293 292 289 287 286 281 274
153 157 156 172 264 274 289 255 154 217 277 233 248 283 303 315 317 301 316 328 311 311 310 310 311 311 313 314 314 316 316 314 314 312 309 306 300 292 290 285 282 281 283 278
62 102 143 160 222 253 266 297 286 122 284 279 245 283 305 343 326 301 333 331 321 318 317 317 317 316 316 316 319 318 315 317 314 310 306 303 298 291 285 282 284 286 281 278
70 107 186 202 232 264 275 297 97 174 268 305 281 286 290 267 258 288 314 318 318 317 317 319 319 320 318 319 321 319 317 314 310 311 312 312 304 293 286 286 286 284 280 281
183 184 201 178 217 258 294 115 188 237 295 308 304 293 285 280 293 305 313 317 323 323 324 326 325 323 323 325 326 322 318 315 317 320 321 319 311 302 304 295 294 290 279 276
199 198 193 196 219 250 164 204 254 291 288 297 296 294 289 291 298 308 313 315 318 319 322 325 323 322 325 329 331 323 318 321 325 327 325 321 320 317 314 305 303 304 297 290
266 240 203 253 268 262 253 269 287 283 277 285 288 289 286 285 290 302 309 315 320 321 322 324 326 327 328 332 333 323 320 325 326 326 324 323 324 325 328 321 316 312 302 295
249 176 222 261 287 309 291 270 283 296 303 309 311 297 284 282 289 296 305 311 316 320 323 326 329 326 324 329 329 329 330 329 328 326 326 328 328 325 325 322 312 307 298 300
202 184 193 238 249 242 276 308 313 307 308 310 314 315 312 293 289 302 305 310 315 319 325 329 329 326 326 328 329 330 332 331 329 330 332 330 329 328 328 326 327 328 325 323